Regional Weather Roundup
Issued by NWS

Home | Current Version | Previous Version | Text Only | Print | Product List | Glossary On
Versions: 1 2 3 4 5 6 7 8 9 10 11 12 13 14 15 16 17 18 19 20 21 22 23 24 25 26 27 28 29 30 31 32 33 34 35 36 37 38 39 40 41 42 43 44 45 46 47 48 49 50
000
ASUS43 KIND 191709
RWRIN

WEATHER ROUNDUP FOR INDIANA
NATIONAL WEATHER SERVICE INDIANAPOLIS IN
100 PM EDT SAT APR 19 2014

NOTE: "FAIR" INDICATES FEW OR NO CLOUDS BELOW 12,000 FEET WITH NO
SIGNIFICANT WEATHER AND/OR OBSTRUCTIONS TO VISIBILITY.

* - STATION DOES NOT REPORT WEATHER SUCH AS PRECIPITATION OR FOG.

+ - STATION NOT QUALITY CONTROLLED BY THE NATIONAL WEATHER SERVICE.
    USE DATA WITH CAUTION...ESPECIALLY DEWPOINT AND RELATIVE
    HUMIDITY OBSERVATIONS.

INZ001>003-010>013-019-020-191800-
NORTHWEST INDIANA

CITY           SKY/WX    TMP DP  RH WIND       PRES   REMARKS
GARY /AIRPORT/ MOSUNNY   54  39  58 NE9       30.35F
LA PORTE +     SUNNY     57  36  45 SE13      30.36F
MICHIGAN CITY+ SUNNY     59  32  36 SE8G17    30.35F
MONTICELLO +   SUNNY     58  41  53 E10       30.34F
RENSSELAER +   SUNNY     61  36  39 E12       30.34F
VALPARAISO     SUNNY     60  35  39 E13       30.35F

$$

LMZ046-743>745-191800-
SOUTHERN LAKE MICHIGAN

STATION/POSITION TIME  TEMP WIND        PRES
                       AIR  DIR/SP/G
                 (UTC) (F)  (DEG/KT/KT) (MB)
MICHIGAN CITY    1700   55  100/  6/  9   N/A

$$

INZ004-005-014>016-021>024-191800-
NORTH CENTRAL INDIANA

CITY           SKY/WX    TMP DP  RH WIND       PRES   REMARKS
ELKHART        SUNNY     55  36  47 SE8       30.39F
GOSHEN         SUNNY     56  37  49 E10       30.38F
LOGANSPORT +   SUNNY     59  36  41 E13       30.36F
PERU/GRISSOM   SUNNY     58  41  54 E15       30.35F
ROCHESTER +    SUNNY     59  37  44 SE12      30.37F
SOUTH BEND     SUNNY     57  36  45 E8G18     30.38F
WARSAW +       SUNNY     54  37  54 SE10G16   30.37F

$$

INZ006>009-017-018-025>027-191800-
NORTHEAST INDIANA

CITY           SKY/WX    TMP DP  RH WIND       PRES   REMARKS
ANGOLA *+      SUNNY     52  36  54 E14       30.39F
AUBURN +       SUNNY     54  36  50 E9G17     30.40F
FORT WAYNE     MOSUNNY   54  37  52 E16G22    30.39F

$$

INZ028-029-035-036-043>045-051>053-191800-
WEST CENTRAL INDIANA

CITY           SKY/WX    TMP DP  RH WIND       PRES   REMARKS
GREENCASTLE +  SUNNY     63  41  45 E8        30.32F
LAFAYETTE      SUNNY     60  41  49 E13       30.33F
TERRE HAUTE    SUNNY     67  37  33 E15G21    30.30F

$$

INZ030>032-037>040-046>048-054>057-064-065-191800-
CENTRAL INDIANA

CITY           SKY/WX    TMP DP  RH WIND       PRES   REMARKS
ANDERSON       SUNNY     59  39  47 E17       30.36F
CP ATTERBURY + SUNNY     64  41  42 E8        30.32F
COLUMBUS       SUNNY     64  41  42 E9        30.31F
INDIANAPOLIS   MOSUNNY   62  40  44 E15       30.32F
-EAGLE CREEK   SUNNY     62  42  47 E8        30.32F
KOKOMO *+        N/A    N/A N/A N/A MISG        N/A
MARION +       SUNNY     56  38  51 E12G17    30.36F
MT COMFORT *+  SUNNY     63  43  48 NE7G18    30.33F
SHELBYVILLE    SUNNY     66  40  38 E12       30.32F
ZIONSVILLE +   SUNNY     62  41  45 SE12      30.34F

$$

INZ033-034-041-042-049-050-058-059-191800-
EAST CENTRAL INDIANA

CITY           SKY/WX    TMP DP  RH WIND       PRES   REMARKS
MUNCIE         SUNNY     58  40  51 E14       30.35F

$$

INZ060-061-067>069-081>083-085>088-191800-
SOUTHWEST INDIANA

CITY           SKY/WX    TMP DP  RH WIND       PRES   REMARKS
EVANSVILLE     SUNNY     71  42  35 NE8G16    30.26F
HUNTINGBURG *+ SUNNY     70  45  40 NE8       30.27F
WASHINGTON +   SUNNY     68  37  31 E9        30.27F

$$

INZ062-063-066-070>080-084-089>092-191800-
SOUTH CENTRAL AND SOUTHEAST INDIANA

CITY           SKY/WX    TMP DP  RH WIND       PRES   REMARKS
BLOOMINGTON    SUNNY     68  33  27 E10G18    30.29F
NORTH VERNON + SUNNY     66  34  30 NE10      30.30

$$




USA.gov is the U.S. government's official web portal to all federal, state and local government web resources and services.